Regional Weather Roundup
Issued by NWS Kansas City/Pleasant Hill, MO

Home | Current Version | Previous Version | Graphics & Text | Print | Product List | Glossary Off
Versions: 1 2 3 4 5 6 7 8 9 10 11 12 13 14 15 16 17 18 19 20 21 22 23 24 25 26 27 28 29 30 31 32 33 34 35 36 37 38 39 40 41 42 43 44 45 46 47 48 49 50

000
ASUS43 KEAX 230910
RWREAX

WEATHER ROUNDUP FOR EASTERN KANSAS AND NORTHWEST MISSOURI
NATIONAL WEATHER SERVICE KANSAS CITY/PLEASANT HILL MO
400 AM CDT WED JUL 23 2014

KSZ040-057-103>105-MOZ028-029-037-043-231000-
...KANSAS CITY METROPOLITAN AREA...

CITY           SKY/WX    TMP DP  RH WIND       PRES   REMARKS
K.C. INTL      PTCLDY    75  69  81 NE14      30.10F
K.C. DOWNTOWN  CLEAR     79  70  74 NE10      30.08F
LEES SUMMIT    MOCLDY    78  71  79 N9        30.09F
OLATHE - IXD   CLEAR     78  72  81 N7        30.09F
OLATHE - OJC   CLEAR     79  70  74 NE10      30.08F
LAWRENCE       CLEAR     78  70  76 NE6       30.10S HAZE

$$

MOZ001>008-011>017-020>025-030>033-038>040-044>046-053-054-231000-
...NORTHERN AND CENTRAL MISSOURI...

CITY           SKY/WX    TMP DP  RH WIND       PRES   REMARKS
ST. JOSEPH     CLEAR     71  67  87 N6        30.12S
MOSBY          SUNNY     77  68  73 N6        30.09S
WHITEMAN AFB   PTCLDY    78  67  70 N9        30.06R
CLINTON        CLEAR     81  79  94 NE8       30.05S
SEDALIA        CLEAR     79  73  82 N7        30.07S
WARSAW         NOT AVBL
MARSHALL       CLEAR     81  75  83 N6        30.08S
CHILLICOTHE      N/A     74  68  81 VRB5      30.11S
MOBERLY        CLEAR     75  68  78 N8        30.08R
KIRKSVILLE     CLEAR     72  68  87 N10       30.11R

$$

MOZ041-047>049-056>058-063>065-088>090-097-231000-
...EASTERN AND SOUTHERN MISSOURI...

CITY           SKY/WX    TMP DP  RH WIND       PRES   REMARKS
ST. LOUIS INTL CLOUDY    82  73  74 W9        30.00S
SPIRIT OF STL  CLOUDY    79  74  84 CALM      30.00S
COLUMBIA       CLEAR     80  76  87 N9        30.05S
JEFFERSON CITY MOCLDY    80  78  94 VRB5      30.02S
MEXICO         CLEAR    N/A N/A N/A N10       30.05
HANNIBAL       CLEAR     77  72  83 N6        30.05S
ROLLA          CLEAR     75  72  90 SW6       30.03F
LEBANON        PTCLDY    81  73  78 W6        30.07F
OSAGE BEACH    MOCLDY    75  73  94 CALM      30.04S
SPRINGFIELD    PTCLDY    78  74  87 W3        30.08S
BRANSON        MOCLDY    75  73  94 CALM      30.10S
NEVADA         CLEAR     77  75  94 SW3       30.06F FOG
JOPLIN         PTCLDY    79  75  87 MISG      30.08F
WEST PLAINS    MOCLDY    73  68  84 SW5       30.08F
MALDEN         PTCLDY    73  70  88 CALM      30.04

$$

IAZ060-094-KSZ022-034>040-054-083-096-NEZ052-066-093-231000-
...KANSAS...SOUTHEAST NEBRASKA AND IOWA...

CITY           SKY/WX    TMP DP  RH WIND       PRES   REMARKS
TOPEKA         PTCLDY    78  71  79 N7        30.11S
MANHATTAN      CLEAR     77  69  76 NE9       30.13S
EMPORIA        CLEAR     78  75  90 N5        30.10F
CHANUTE        CLEAR     78  74  87 SW5       30.08F
WICHITA        CLEAR     76  72  87 W7        30.10F
OMAHA          CLEAR     66  59  78 NW7       30.18F
LINCOLN        CLEAR     69  62  78 NE8       30.18F
FALLS CITY     CLEAR     69  66  90 N5        30.14S
LAMONI         CLEAR     68  64  87 N8        30.14S
DES MOINES     PTCLDY    70  59  68 N10       30.15R

$$



USA.gov is the U.S. government's official web portal to all federal, state and local government web resources and services.